Other Public Products
Issued by NWS Grand Forks, ND

Home | Current Version | Previous Version | Graphics & Text | Print | Product List | Glossary On
Versions: 1 2 3 4 5 6 7 8 9 10 11 12 13 14 15 16 17 18 19 20 21 22 23 24 25 26 27 28 29 30 31 32 33 34 35 36 37 38 39 40 41 42 43 44 45 46 47 48 49 50
000
FPUS83 KFGF 010831
OPUFGF
PRAIRIE TO PINES WEATHER ROUNDUP
NATIONAL WEATHER SERVICE EASTERN NORTH DAKOTA/GRAND FORKS ND
300 AM CDT WED OCT 01 2014

 **SATELLITE DATA USED TO AUGMENT SKY COVER AT AUTOMATED STATIONS**
 *****  WEATHER ACROSS EASTERN NORTH DAKOTA  *****

CITY           SKY/WX    TMP DP  RH WIND       PRES   REMARKS
GRAND FORKS    PTCLDY    62  56  80 S21G35    29.49F
GRAND FORKS AF MOCLDY    60  60  99 S18G29    29.48F
GRAND CITY NWS   N/A     59 N/A N/A S18         N/A
BUXTON           N/A     61  60  97 SE16G31     N/A
DEVILS LAKE    CLOUDY    55  48  76 SW23G32   29.41R
FARGO          PTCLDY    63  57  81 S21G30    29.58R
WAHPETON ARPT  SUNNY     59  54  82 S15       29.64S
$$

 *****  WEATHER ACROSS CENTRAL AND WESTERN NORTH DAKOTA  *****

CITY           SKY/WX    TMP DP  RH WIND       PRES   REMARKS
JAMESTOWN      MOCLDY    56  51  84 SW12      29.53R
BISMARCK       CLOUDY    55  53  93 W6        29.53S
MINOT          CLOUDY    52  49  89 W10       29.42S
MINOT AFB      CLOUDY    52  52 100 W12       29.42R
GARRISON         N/A     52  50  93 W13       29.46R
WILLISTON      CLOUDY    54  51  90 W20G26    29.49R
DICKINSON      CLOUDY    53  51  93 W20G25    29.54R
HETTINGER      MOCLDY    52  49  89 W14       29.62R
$$

 *****  OTHER OBSERVATIONS NORTHEAST NORTH DAKOTA  *****

CITY           SKY/WX    TMP DP  RH WIND       PRES   REMARKS
WALHALLA       FAIR      57  57 100 SE17G25   29.42F
LANGDON        CLOUDY    57  54  88 S23G31    29.40F
CAVALIER       CLOUDY    59  54  82 SE17G29   29.44F
GRAFTON        CLOUDY    57  54  88 SE21G31   29.46F
CANDO          CLOUDY    55  54  94 SW20      29.38R
FORT TOTTEN    NOT AVBL
ROLLA          CLOUDY    54  54 100 S13       29.34F FOG
RUGBY          PTSUNNY   52  52 100 W20G25    29.38R
 ***** THE ABOVE OBSERVATIONS ARE NON NWS ARE NOT QUALITY
        CONTROLLED AND MAY MIS-REPORT RAIN FOR SNOW...
$$

 *****  OTHER OBSERVATIONS SOUTHEAST NORTH DAKOTA *****

CITY           SKY/WX    TMP DP  RH WIND       PRES   REMARKS
COOPERSTOWN    NOT AVBL
VALLEY CITY    CLOUDY    57  57 100 SW15      29.54S
OAKES            N/A     55  54  94 S16G22    29.59S
GWINNER        SUNNY     61  54  77 S17G23    29.61R
SHEYENNE NWR     N/A     60  56  85 S12       29.95
BUFFALO          N/A     60  50  71 SW18        N/A
WYNDMERE         N/A     61  57  88 S9          N/A
 ***** THE ABOVE OBSERVATIONS ARE NON NWS ARE NOT QUALITY
       CONTROLLED AND MAY MIS-REPORT RAIN FOR SNOW...
$$

  *****  WEATHER ACROSS NORTHERN MINNESOTA  *****

CITY           SKY/WX    TMP DP  RH WIND       PRES   REMARKS
FLAG ISLAND    CLOUDY    52  46  82 SE22      29.66F
WARROAD        CLOUDY    54  48  82 SE17G26   29.64F
ROSEAU         CLOUDY    55  48  76 SE17G26   29.61F
HALLOCK        CLOUDY    61  52  72 SE23      29.48F
THF RVR FALLS  CLOUDY    59  50  72 SE21G31   29.57F
HALSTAD          N/A     62  57  84 S20         N/A
FOSSTON        CLOUDY    55  48  76 SE18G29   29.62F
BAUDETTE       MOCLDY    48  42  80 SE9       29.70F
WASKISH        PTCLDY    50  45  81 SE15G21   29.71F
CROOKSTON      MOCLDY    61  54  77 S24       29.55F
$$
  *****  WEATHER ACROSS CENTRAL AND WEST MINNESOTA  *****

CITY           SKY/WX    TMP DP  RH WIND       PRES   REMARKS
BEMIDJI        CLOUDY    50  46  86 SE14G20   29.71F
PARK RAPIDS    CLOUDY    52  47  83 SE22      29.73F
WADENA         CLOUDY    52  48  87 SE15      29.72F
DETROIT LAKES  CLOUDY    55  52  88 S16G23    29.66F
MOORHEAD       NOT AVBL
FERGUS FALLS   MOCLDY    61  55  82 S20G25    29.67S
ELBOW LAKE     CLOUDY    59  56  92 S16       29.68F
MORRIS MN      CLEAR     61  57  88 SE17G24   29.69S
STAPLES        CLOUDY    50  46  87 SE10      29.76F
WHEATON        PTCLDY    55  55 100 SE12      29.68S
$$
  *****  WEATHER ELSEWHERE ACROSS MINNESOTA  *****

CITY           SKY/WX    TMP DP  RH WIND       PRES   REMARKS
DULUTH         CLOUDY    49  45  86 SE14      29.88F
INTRNTL FALLS  CLOUDY    47  42  83 SE10      29.79F
ELY            MOCLDY    46  43  87 SE13      29.85F
CLOQUET        MOCLDY    46  43  87 SE10      29.87F
BRAINERD       MOCLDY    49  45  86 SE9       29.80F
HIBBING        MOCLDY    48  43  82 SE8       29.85S
ALEXANDRIA     CLOUDY    57  55  93 S20       29.75F FOG
SAINT CLOUD    MOCLDY    53  47  79 SE15      29.80F
MINNEAPOLIS    MOCLDY    51  44  77 SE14      29.86F
$$

  *****  WEATHER ACROSS SOUTH DAKOTA  *****

CITY           SKY/WX    TMP DP  RH WIND       PRES   REMARKS
SIOUX FALLS    CLOUDY    62  60  93 S13       29.74S
BROOKINGS      NOT AVBL
WATERTOWN      MOCLDY    60  58  92 S13       29.68S
HURON          CLOUDY    62  60  93 SW5       29.68R
SISSETON         N/A     62  59  90 SW15G25   29.63F
ABERDEEN       CLEAR     57  50  77 S13       29.64R
MITCHELL       MOCLDY    62  60  93 S12       29.69R
PIERRE         PTCLDY    55  48  77 SW7       29.66R
MOBRIDGE       PTCLDY    56  52  86 S8        29.59R
RAPID CITY     CLOUDY    52  46  80 NW6       29.74R
$$

  *****  SOME WEATHER IN NEARBY STATES *****

CITY           SKY/WX    TMP DP  RH WIND       PRES   REMARKS
GLASGOW MT     CLOUDY    51  46  83 NW22G29   29.66R
GREAT FALLS MT CLOUDY    42  40  92 W8        29.91S
CHEYENNE WY    PTCLDY    46  36  68 W7        29.89S
SCOTTSBLUFF NE PTCLDY    50  45  83 NW3       29.81R
OMAHA NE       RAIN      64  61  90 E13       29.73F
DES MOINES IA  RAIN      63  58  83 SE3       29.83R
DAVENPORT IA   NOT AVBL
CHICAGO IL     CLOUDY    54  46  74 SE13      30.00S
EAU CLAIRE WI  MOCLDY    47  42  83 SE6       29.95F
LA CROSSE WI   CLOUDY    51  44  77 SE10      29.97S
$$

  *****  SOME NATIONAL WEATHER *****

CITY           SKY/WX    TMP DP  RH WIND       PRES   REMARKS
LA GUARDIA NY  CLOUDY    63  57  82 N7        29.98S
RALEIGH NC     PTCLDY    57  55  93 CALM      29.94S FOG
ATLANTA GA     PTCLDY    66  64  93 SW3       29.94S
NEW ORLEANS LA PTCLDY    75  71  87 CALM      29.87F
OKLAHOMA CITY  MOCLDY    73  66  78 S13       29.76R
ALBUQUERQUE NM CLEAR     54  33  45 CALM      29.96S
SALT LAKE CITY LGT RAIN  51  47  86 W7        29.97S
LOS ANGELES CA CLEAR     66  62  87 SE3       29.77S
BOISE ID       PTCLDY    48  39  71 NW6       30.04R
SEATTLE WA     CLOUDY    57  48  72 E5        30.19R
$$

*** WEATHER ACROSS MANITOBA...SASKATCHEWAN AND ONTARIO ***
                ***ONTARIO***

CITY           SKY/WX    TMP DP  RH WIND       PRES   REMARKS
GERALDTON      CLEAR     34  32  93 CALM      30.01F
THUNDER BAY    CLEAR     34  32  93 CALM      29.98F
SIOUX LOOKOUT  CLEAR     43  39  87 S9G18     29.83F
TORONTO        CLOUDY    59  54  82 E10       30.03S
BIG TROUT LK   CLEAR     45  39  81 S14G20    29.83F
PICKLE LAKE    NOT AVBL
DRYDEN         MOCLDY    46  41  81 S13G23    29.79F
KENORA         MOCLDY    50  43  76 SE15G24   29.71F
$$
                *** MANITOBA***

CITY           SKY/WX    TMP DP  RH WIND       PRES   REMARKS
BRANDON        LGT RAIN  50  48  93 NE13      29.40F
DAUPHIN        LGT RAIN  50  50 100 E6        29.45F
ISLAND LAKE    PTCLDY    45  43  93 SE8       29.67F
PILOT MOUND    NOT AVBL
THE PAS        LGT RAIN  50  50 100 SE6       29.49F
THOMPSON       LGT RAIN  50  50 100 E2        29.59F
WINNIPEG       CLOUDY    55  48  76 SE23G29   29.52F
LYNN LAKE      FOG       48  48 100 S3        29.53F VSB 3/4
CHURCHILL      LGT RAIN  43  41  93 SE14G21   29.69F
GILLAM         CLOUDY    45  41  87 SE6       29.68F
$$
                ***SASKATCHEWAN***

CITY           SKY/WX    TMP DP  RH WIND       PRES   REMARKS
ESTEVAN        LGT RAIN  48  48 100 NW2       29.45F
KINDERSLEY     CLOUDY    48  43  81 NW14G21   29.68R
LLOYDMINSTER   MOCLDY    48  43  81 NW14      29.70R
PRINCE ALBERT  CLOUDY    54  50  87 NW9       29.54R
REGINA         LGT RAIN  50  48  93 W8        29.48F


USA.gov is the U.S. government's official web portal to all federal, state and local government web resources and services.